Погода в Цудахаре

Россия / Республика Дагестан     42°20′32″N   47°09′33″E
темп.,
°C
ветер,
м/с
пор.,
м/с
влажн.,
%
обл.,
%
осадки,
мм/ч
давл.,
гПа
погр.,
м
2 июля, сб
сб200:00+11ююз119193 0.4 101411
03:00+11ююз118821 0.4 101210
06:00+13ююв118210 0.0 101176
09:00+16св217643 0.6 1010752
12:00+13всв2288100 4.6 1011429
15:00+10ссв2297100 9.4 1012273
18:00+10ссв1195100 0.9 1013192
21:00+9з1194100 1.8 1015104
3 июля, вс
вс300:00+9зюз2190100 0.0 101436
03:00+7юз218422 0.0 101311
06:00+9з12751 0.0 101485
09:00+12ссз32635 0.0 1013712
12:00+14с225364 0.0 10141300
15:00+15ссз2355100 0.0 10131643
18:00+11юв1280100 0.2 1015122
21:00+10зюз117499 0.3 101611
4 июля, пн
пн400:00+9юз228174 0.4 101627
03:00+6ююз228839 0.4 101716
06:00+9юз128088 0.1 1017148
09:00+13ссз226417 0.2 10161209
12:00+14ссз225891 0.1 10161358
15:00+14ссв236224 0.3 1016918
18:00+14св01655 0.0 1016664
21:00+9ю227718 0.1 101816
5 июля, вт
вт500:00+8ююз22794 0.0 101810
03:00+7ююз22802 0.0 101816
06:00+10ююз22740 0.0 101861
09:00+15ссз21620 0.0 1017945
12:00+17с325615 0.0 10161607
15:00+17ссв225280 0.1 10161464
18:00+14в117926 0.3 101771
21:00+10ю11854 0.4 101910
6 июля, ср
ср600:00+9ююз118811 0.0 101910
03:00+9ююз118925 0.0 101910
06:00+11юз118518 0.0 101984
09:00+15ссв217235 0.2 1018949
12:00+16всв2269100 0.4 1018941
15:00+15всв227553 0.6 1018749
18:00+14юв238052 0.1 1019251
21:00+10ю22900 0.1 102015